Weather History for KFTG - March, 2013

Change the Weather History Date:

Saturday, March 23, 2013

  Actual Average (KDEN) Record (KDEN)
Temperature  
Mean Temperature 21 °F 42 °F  
Max Temperature 28 °F 57 °F 76 °F (1967)
Min Temperature 14 °F 28 °F 1 °F (1898)
Degree Days  
Heating Degree Days 44 23  
Month to date heating degree days 589  
Since 1 July heating degree days 5028  
Cooling Degree Days 0 0  
Month to date cooling degree days 0  
Year to date cooling degree days 0  
Moisture  
Dew Point 19 °F    
Average Humidity 92    
Maximum Humidity 100    
Minimum Humidity 86    
Precipitation  
Precipitation 0.00 in 0.03 in 1.20 in (1909)
Month to date precipitation 0.61  
Year to date precipitation 1.39  
Snow  
Snow 0.00 in - - ()
Month to date snowfall  
Since 1 July snowfall  
Snow Depth -    
Sea Level Pressure  
Sea Level Pressure 29.98 in    
Wind  
Wind Speed 14 mph (NNW)    
Max Wind Speed 26 mph    
Max Gust Speed 33 mph    
Visibility 4 miles    
Events Snow    
T = Trace of Precipitation, MM = Missing Value Source: NWS Daily Summary

Daily Weather History Graph

Daily Weather History Graph

Search for Another Location

Airport or City:

Trip Planner

Search our weather history database for the weather conditions in past years. The results will help you decide how hot, cold, wet, or windy it might be!

Date:

Astronomy

Mar. 23, 2013 Rise Set
Actual Time 6:56 AM MDT 7:13 PM MDT
Civil Twilight 6:29 AM MDT 7:40 PM MDT
Nautical Twilight 5:57 AM MDT 8:12 PM MDT
Astronomical Twilight 5:25 AM MDT 8:44 PM MDT
Moon 3:43 PM MDT (3/23) 4:33 AM MDT (3/23)
Length of Visible Light 13h 11m
Length of Day
12h 17m
Waxing Gibbous, 85% of the Moon is Illuminated
Mar 23
Waxing Gibbous
Mar 27
Full
Apr 2
Last Quarter
Apr 10
New
Apr 18
First Quarter

Hourly Weather History & Observations

Time (MDT) Temp. Windchill Dew Point Humidity Pressure Visibility Wind Dir Wind Speed Gust Speed Precip Events Conditions
12:16 AM 28.4 °F 21.2 °F 28.4 °F 100% 29.88 in 1.8 mi North 6.9 mph - N/A Snow Light Snow
12:37 AM 28.4 °F 19.7 °F 28.4 °F 100% 29.89 in 2.0 mi North 9.2 mph - N/A Snow Light Snow
12:57 AM 28.4 °F 14.4 °F 26.6 °F 93% 29.89 in 1.2 mi NNE 23.0 mph - N/A Snow Light Snow
1:17 AM 26.6 °F 14.3 °F 24.8 °F 93% 29.87 in 1.2 mi North 16.1 mph - N/A Snow Light Snow
1:37 AM 26.6 °F 14.3 °F 24.8 °F 93% 29.89 in 2.0 mi NNE 16.1 mph - N/A Snow Light Snow
1:57 AM 26.6 °F 15.2 °F 24.8 °F 93% 29.86 in 4.0 mi NNE 13.8 mph - N/A Snow Light Snow
2:17 AM 26.6 °F 14.7 °F 24.8 °F 93% 29.86 in 2.5 mi NNE 15.0 mph - N/A Snow Light Snow
2:36 AM 26.6 °F 14.3 °F 24.8 °F 93% 29.86 in 4.0 mi NNE 16.1 mph - N/A Snow Light Snow
2:57 AM 26.6 °F 15.7 °F 24.8 °F 93% 29.86 in 1.8 mi North 12.7 mph - N/A Snow Light Snow
3:17 AM 26.6 °F 14.7 °F 23.0 °F 86% 29.87 in - North 15.0 mph - N/A   Overcast
3:37 AM 26.6 °F 15.2 °F 23.0 °F 86% 29.87 in - North 13.8 mph - N/A   Overcast
3:57 AM 26.6 °F 16.2 °F 23.0 °F 86% 29.87 in - NNW 11.5 mph - N/A   Overcast
4:17 AM 24.8 °F 14.0 °F 23.0 °F 93% 29.87 in - NNW 11.5 mph - N/A   Overcast
4:37 AM 24.8 °F 11.9 °F 23.0 °F 93% 29.86 in - NNW 16.1 mph - N/A   Overcast
4:57 AM 24.8 °F 14.6 °F 23.0 °F 93% 29.87 in - NW 10.4 mph - N/A   Overcast
5:16 AM 24.8 °F 15.3 °F 23.0 °F 93% 29.87 in - NW 9.2 mph - N/A   Overcast
5:37 AM 24.8 °F 10.3 °F 23.0 °F 93% 29.87 in - North 20.7 mph - N/A   Overcast
5:57 AM 24.8 °F 11.9 °F 23.0 °F 93% 29.87 in 1.0 mi North 16.1 mph - N/A Snow Snow
6:16 AM 24.8 °F 11.9 °F 23.0 °F 93% 29.87 in 1.0 mi North 16.1 mph - N/A Snow Snow
6:37 AM 24.8 °F 11.5 °F 23.0 °F 93% 29.87 in 1.0 mi North 17.3 mph - N/A Snow Snow
7:55 AM 21.2 °F 3.9 °F 19.4 °F 93% 29.90 in 0.2 mi North 26.5 mph 33.4 mph N/A Snow Snow
8:55 AM 19.4 °F 2.1 °F 17.6 °F 93% 29.92 in 0.2 mi North 24.2 mph - N/A Snow Snow
9:54 AM 17.6 °F 0.5 °F 15.8 °F 93% 29.96 in 0.2 mi NNW 21.9 mph - N/A Snow Snow
10:49 AM 17.6 °F -1.0 °F 14.0 °F 86% 29.99 in 0.2 mi NNW 26.5 mph - N/A Snow Snow
11:56 AM 17.6 °F 1.3 °F 14.0 °F 86% 30.02 in 0.5 mi North 19.6 mph 26.5 mph N/A Snow Snow
12:49 PM 17.6 °F 0.9 °F 15.8 °F 93% 30.03 in 0.5 mi NNW 20.7 mph - N/A Snow Snow
1:48 PM 19.4 °F 2.5 °F 15.8 °F 86% 30.04 in 0.5 mi North 23.0 mph - N/A Snow Light Snow
2:48 PM 19.4 °F 3.2 °F 15.8 °F 86% 30.04 in 1.0 mi NNW 20.7 mph - N/A Snow Light Snow
4:50 PM 19.4 °F 7.2 °F 15.8 °F 86% 30.07 in 2.0 mi NNW 11.5 mph - N/A Snow Light Snow
5:52 PM 19.4 °F 7.2 °F 17.6 °F 93% 30.08 in 2.0 mi NNW 11.5 mph - N/A Snow Light Snow
6:22 PM 19.4 °F 8.6 °F 17.6 °F 93% 30.08 in 5.0 mi NW 9.2 mph - N/A   Overcast
6:48 PM 19.4 °F 11.5 °F 17.6 °F 93% 30.09 in 4.0 mi NW 5.8 mph - N/A Snow Light Snow
7:48 PM 15.8 °F 6.1 °F 15.8 °F 100% 30.11 in 7.0 mi West 6.9 mph - N/A   Mostly Cloudy
8:38 PM 15.8 °F 6.1 °F 14.0 °F 93% 30.11 in 10.0 mi WSW 6.9 mph - N/A   Mostly Cloudy
8:58 PM 14.0 °F 2.9 °F 12.2 °F 93% 30.12 in 7.0 mi WSW 8.1 mph - N/A   Clear
9:17 PM 15.8 °F 5.1 °F 14.0 °F 93% 30.13 in 10.0 mi WSW 8.1 mph - N/A   Clear
9:38 PM 15.8 °F 3.4 °F 14.0 °F 93% 30.13 in 10.0 mi WSW 10.4 mph - N/A   Clear
9:56 PM 14.0 °F 2.9 °F 12.2 °F 93% 30.14 in 10.0 mi WSW 8.1 mph - N/A   Clear
10:17 PM 15.8 °F 2.7 °F 12.2 °F 86% 30.14 in 10.0 mi WSW 11.5 mph - N/A   Clear
10:36 PM 15.8 °F 3.4 °F 12.2 °F 86% 30.14 in 10.0 mi WSW 10.4 mph - N/A   Clear
10:57 PM 14.0 °F 1.2 °F 12.2 °F 93% 30.13 in 10.0 mi SW 10.4 mph - N/A   Clear
11:17 PM 14.0 °F 1.2 °F 12.2 °F 93% 30.13 in 10.0 mi SW 10.4 mph - N/A   Scattered Clouds
11:36 PM 14.0 °F 2.0 °F 12.2 °F 93% 30.13 in 10.0 mi SW 9.2 mph - N/A   Mostly Cloudy
11:57 PM 14.0 °F 1.2 °F 12.2 °F 93% 30.12 in 10.0 mi SW 10.4 mph - N/A   Scattered Clouds